Location: Ch?enovice
(49.7164°N, 15.2160°E)
Time: 18:18:29
(UTC+00:00)

Cosmos 405 Rocket - Pass Details

Date: 23 May 2024
Orbit: 456 x 504 km, 81.3° (Epoch: 13 June)

Event Time Altitude Azimuth Distance (km) Brightness Sun altitude
Rises 01:33:50 0° 353° (N) 2,515 7.0 -11.4°
Reaches altitude 10° 01:36:00 10° 1° (N) 1,640 6.1 -11.2°
Maximum altitude 01:39:25 41° 73° (ENE) 698 3.8 -10.9°
Drops below altitude 10° 01:42:52 10° 146° (SE) 1,653 5.1 -10.5°
Sets 01:45:03 0° 153° (SSE) 2,537 6.0 -10.3°
